Skip Page Navigation
NASA JPL Caltech
NASA Logo - Jet Propulsion Laboratory + View the NASA Portal
+ Center for Near-Earth Object Studies
JPL Home Earth Solar System Stars & Galaxies Technology
JPL Solar System Dynamics
BODIES ORBITS EPHEMERIDES TOOLS PHYSICAL DATA DISCOVERY FAQ SITE MAP
JPL Small-Body Database Browser
Search: [ help ]  
3550 Link (1981 YS)
Classification: Main-belt Asteroid          SPK-ID: 2003550
Ephemeris | Orbit Diagram | Orbital Elements | Mission Design | Physical Parameters | Discovery Circumstances | Close-Approach Data ]

[ hide orbit diagram ]

For accurate long-term ephemerides, please instead use our Horizons system.This orbit viewer was implemented using two-body methods, and hence should not be used for determining accurate long-term trajectories (over several years or decades) or planetary encounter circumstances.


[ revert to old Java-based viewer ]

Orbital Elements at Epoch 2459000.5 (2020-May-31.0) TDB
Reference: JPL 28 (heliocentric ecliptic J2000)
 Element Value Uncertainty (1-sigma)   Units 
e .1579020530647993 3.7473e-08  
a 2.92611139009992 1.5316e-08 au
q 2.464072394106849 1.1163e-07 au
i 14.681061534742 4.1632e-06 deg
node 81.13747638685263 1.9909e-05 deg
peri 29.69054875230026 2.606e-05 deg
M 227.1362668393892 1.7877e-05 deg
tp 2459675.243421492398
(2022-Apr-05.74342149)
9.3637e-05 TDB
period 1828.246323950774
5.01
1.4354e-05
3.93e-08
d
yr
n .1969100089434629 1.546e-09 deg/d
Q 3.388150386092991 1.7735e-08 au
  Orbit Determination Parameters
   # obs. used (total)      2105  
   data-arc span      21513 days (58.90 yr)  
   first obs. used      1961-12-06  
   last obs. used      2020-10-30  
   planetary ephem.      DE431  
   SB-pert. ephem.      SB431-N16  
   condition code      0  
   norm. resid. RMS      .47264  
   source      ORB  
   producer      Otto Matic  
   solution date      2020-Nov-13 03:59:21  

Additional Information
 Earth MOID = 1.49126 au 
 Jupiter MOID = 1.84472 au 
 T_jup = 3.211 
[ show covariance matrix ]

Ephemeris | Orbit Diagram | Orbital Elements | Mission Design | Physical Parameters | Discovery Circumstances | Close-Approach Data ]

Physical Parameter Table
Parameter Symbol Value Units Sigma Reference Notes
absolute magnitude H 11.6   n/a MPO435732  
diameter diameter 26.515 km 0.279 urn:nasa:pds:neowise_diameters_albedos::2.0[mainbelt] (http://adsabs.harvard.edu/abs/2014ApJ...791..121M)  
rotation period rot_per 12.371 h n/a LCDB (Rev. 2019-August); Warner et al., 2009 Result based on less than full coverage, so that the period may be wrong by 30 percent or so.
Published Reference List:
[Waszczak, A.; Chang, C.-K.; Ofeck, E.O.; Laher, F.; et al. (2015) Astron. J. 150, A75.]
geometric albedo albedo 0.048   0.009 urn:nasa:pds:neowise_diameters_albedos::2.0[mainbelt] (http://adsabs.harvard.edu/abs/2012ApJ...759L...8M)  

3550 Link (1981 YS)          Discovered 1981-Dec-20 by Mrkos, A. at Klet
Reference: DISCOVERY.DBLast Updated: 2003-08-29

[ show close-approach data ]
Alternate Designations
 1981 YS = 1938 JD = 1951 YL2 = 1961 XM = 1961 XZ = 1962 AB 
Ephemeris | Orbit Diagram | Orbital Elements | Mission Design | Physical Parameters | Discovery Circumstances | Close-Approach Data ]
ABOUT SSD CREDITS/AWARDS PRIVACY/COPYRIGHT GLOSSARY LINKS
FirstGov 2020-Nov-25 03:18 UT
(server date/time)  
NASA Home Page
Site Manager:   Ryan S. Park
Webmaster  Alan B. Chamberlin